Home   Weather   Singapore   Past weeks

Flag for Singapore Past Weather in Singapore, Singapore — Yesterday and Last 2 Weeks

79 °F

Partly cloudy.

Feels Like: 82 °F
Forecast: 77 / 91 °F
Wind: 3 mph from Northeast

Location: Singapore / Paya Lebar

Current Time: Oct 28, 2016 at 12:46:59 AM

Latest Report: Oct 27, 2016 at 11:00 PM

Visibility: N/A

Pressure: 29.89 "Hg

Humidity: 89%

Dew Point: 75 °F

Location of SingaporeLocation

Past Weather in Singapore — Graph


Singapore Temperature Yesterday

Maximum temperature yesterday: 88 °F (at 11:00 AM)
Minimum temperature yesterday: 75 °F (at 3:00 PM)
Average temperature yesterday: 80 °F

High & Low Weather Summary for the Past Weeks

High93 °F (Oct 15, 2:00 PM)100% (Oct 26, 5:00 AM)29.92 "Hg (Oct 26, 5:00 AM)
Low75 °F (Oct 19, 7:00 AM)47% (Oct 15, 2:00 PM)29.68 "Hg (Oct 13, 4:00 PM)
Average85 °F74%29.77 "Hg
* Reported Oct 12 11:00 PM — Oct 27 11:00 PM, Singapore, Weather by CustomWeather, © 2016

Note: Actual official high and low records may vary slightly from our data, if they occured in-between our weather recording intervals... More about our weather records


Singapore Weather History for the Previous 24 Hours

Scroll right to see more
Time TempWeatherWind HumidityBarometerVisibility
11:00 PM
Thu, Oct 27
79 °FPartly cloudy.3 mph89%29.89 "HgN/A
10:00 PM79 °FPassing clouds.3 mph84%29.86 "HgN/A
9:00 PM79 °FPassing clouds.No wind84%29.86 "HgN/A
8:00 PM81 °FPassing clouds.3 mph79%29.83 "HgN/A
6:00 PM84 °FScattered clouds.6 mph70%29.80 "HgN/A
5:00 PM81 °FScattered clouds.6 mph79%29.77 "HgN/A
4:00 PM79 °FPartly sunny.8 mph89%29.80 "Hg5 mi
3:00 PM75 °FLight rain. Partly sunny.2 mph94%29.83 "Hg4 mi
2:00 PM79 °FThunderstorms. Scattered clouds.8 mph84%29.86 "Hg5 mi
1:00 PM79 °FThunderstorms. Partly sunny.7 mph94%29.86 "Hg4 mi
12:00 PM79 °FStrong thunderstorms. Scattered clouds.5 mph94%29.89 "Hg1 mi
11:00 AM88 °FSprinkles. Scattered clouds.5 mph70%29.89 "Hg6 mi
10:00 AM86 °FScattered clouds.2 mph70%29.92 "HgN/A
9:00 AM82 °FScattered clouds.No wind79%29.89 "Hg6 mi
8:00 AM79 °FPartly sunny.No wind89%29.83 "Hg6 mi
7:00 AM79 °FPartly sunny.No wind94%29.83 "Hg6 mi
6:00 AM79 °FPassing clouds.No wind89%29.80 "HgN/A
5:00 AM79 °FPassing clouds.No wind89%29.80 "HgN/A
Weather by CustomWeather, © 2016

See weather overviewHow to use our weather pages